Location: Monroe
(41.9160°N, 83.3980°W)
Time: 01:37:44
(UTC-05:00)

ISS - Visible Passes

Search period start: 21 November 2017 00:00
Search period end: 01 December 2017 00:00
Orbit: 402 x 407 km, 51.6° (Epoch: 21 November)

Date Brightness Start Highest point End Pass type
(mag) Time Alt. Az. Time Alt. Az. Time Alt. Az.
25 Nov -1.1 19:24:58 10° SSW 19:25:39 15° SSW 19:25:39 15° SSW visible
26 Nov -2.4 18:33:13 10° S 18:35:49 23° SE 18:35:49 23° SE visible
27 Nov -1.5 17:42:15 10° SSE 17:43:46 13° SE 17:45:17 10° ESE visible
27 Nov -2.2 19:16:33 10° WSW 19:18:33 34° WSW 19:18:33 34° WSW visible
28 Nov -3.6 18:24:17 10° SW 18:27:29 56° SE 18:28:32 36° E visible
29 Nov -2.6 17:32:20 10° SSW 17:35:13 29° SE 17:38:07 10° ENE visible
29 Nov -2.4 19:08:33 10° W 19:11:05 34° NW 19:11:05 34° NW visible
30 Nov -3.6 18:15:55 10° WSW 18:19:10 62° NNW 18:20:54 25° NE visible
